LUCH (OLYMP) (40258 NORAD) Tracking and Keplerian Element Data

This shows tracking and keplerian element data for the satellite.

Feedback or suggestion? Click here.




ElementValue
Catalog40258
NameLUCH (OLYMP)
Epoch Orbit2359
Epoch Day258.86497328
Epoch Year2021
RAAN202.9672
Inclination0.0225
Eccentricity0.0001225
Argument of Perigee345.8696
Mean Anonmoly174.5401
Mean Motion1.00272722
Decay Rate5.1E-07
L11 40258U 14058A 21258.86497328 .00000051 00000-0 00000-0 0 9998
L22 40258 0.0225 202.9672 0001225 345.8696 174.5401 1.00272722 23593

Live tracking and technical data element details for LUCH (OLYMP) (NORAD 40258). LUCH (OLYMP) can be tracked NOW for your location showing map with azimuth and elevation plus other details from your city location.

Track the satellite on the map from your city or location and see movement details for azimuth, elevation, latitude, longitude, range, height, and movement on the map or in text.







IsCatalogInMostPopularTable: catalog: 40258, numindb: 646
Update: records affected: 1



GetName: 40258 LUCH (OLYMP)

Hit Count: updated at: Sat, 18 Sep 2021 11:17:20 GMT